Regional Weather Roundup
Issued by NWS Charleston, SC

Current Version | Previous Version | Graphics & Text | Print | Product List | Glossary On
Versions: 1 2 3 4 5 6 7 8 9 10 11 12 13 14 15 16 17 18 19 20 21 22 23 24 25 26 27 28 29 30 31 32 33 34 35 36 37 38 39 40 41 42 43 44 45 46 47 48 49 50
000
ASUS42 KCHS 270528
RWRCHS

REGIONAL WEATHER ROUNDUP
NATIONAL WEATHER SERVICE CHARLESTON SC
100 AM EDT SAT AUG 27 2016

NOTE: "FAIR" INDICATES FEW OR NO CLOUDS BELOW 12,000 FEET WITH NO
SIGNIFICANT WEATHER AND/OR OBSTRUCTIONS TO VISIBILITY.

NOT ALL STATIONS ARE QUALITY CONTROLLED. USE DATA WITH CAUTION...
ESPECIALLY DEWPOINT OBSERVATIONS.

SCZ027-030-031-034>040-042>050-270600-
...SOUTHEAST SOUTH CAROLINA...

CITY           SKY/WX    TMP DP  RH WIND       PRES   REMARKS
N CHARLESTON   PTCLDY    76  71  85 CALM      30.08S
WATERFRONT PRK   N/A     82  73  74 SE7       30.06R
MOUNT PLEASANT FAIR      73  73 100 CALM      30.08S
JOHNS ISLAND   FAIR      73  72  94 CALM      30.08S
PINOPOLIS        N/A     77  73  88 CALM      30.02S
MONCKS CORNER  FAIR      72  70  94 CALM      30.09S
SUMMERVILLE    FAIR      72  72 100 CALM      30.10S
BEAUFORT MCAS  CLEAR     73  70  90 N3        30.07F
BEAUFORT ARPT  FAIR      73  72  94 CALM      30.06F
HILTON HEAD IS CLEAR     73  70  88 CALM      30.07F
WALTERBORO     CLEAR     73  73 100 CALM      30.09F
ALLENDALE      FAIR      75  72  88 CALM      30.08F

...SOUTHERN MIDLANDS AND PEE DEE...

CITY           SKY/WX    TMP DP  RH WIND       PRES   REMARKS
GEORGETOWN     FAIR      72  70  94 CALM      30.09F
KINGSTREE      FAIR      72  68  88 CALM      30.09F
ORANGEBURG     CLEAR     76  72  87 CALM      30.10S
BARNWELL       NOT AVBL
AIKEN          MOCLDY    77  70  78 S5        30.14S
MANNING        FAIR      72  70  94 CALM      30.10S
COLUMBIA       MOCLDY    81  71  71 CALM      30.09S
SUMTER         CLEAR     78  71  80 SW2       30.08R
FLORENCE       CLEAR     76  71  85 CALM      30.11R
MYRTLE BEACH   CLEAR     81  66  61 SE6       30.10F
N MYRTLE BEACH CLEAR     81  71  71 S5        30.09R

$$

GAZ063-065-086>088-099>101-113>116-118-119-134>141-150-270600-
...SOUTHEAST GEORGIA...

CITY           SKY/WX    TMP DP  RH WIND       PRES   REMARKS
SAVANNAH ARPT  CLEAR     73  70  90 CALM      30.07F
HUNTER AAF     CLEAR     73  72  96 NE1       30.04F
FORT STEWART   CLEAR     70  68  94 CALM      30.05S FOG
STATESBORO     CLEAR     73  72  96 CALM      30.08S
SYLVANIA       NOT AVBL
CLAXTON        FAIR      70  70 100 CALM      30.08S

...CSRA...CENTRAL AND FAR SOUTHEAST GEORGIA...

CITY           SKY/WX    TMP DP  RH WIND       PRES   REMARKS
THOMSON        PTCLDY    82  74  76 MISG      30.14S
AUGUSTA-BUSH   CLEAR     76  72  87 NE3       30.09R
AUGUSTA-DANIEL CLEAR     82  71  69 SE5       30.11S
SWAINSBORO     FAIR      77  70  78 CALM      30.10S
VIDALIA        CLEAR     73  73 100 CALM      30.09R
EASTMAN        FAIR      77  62  59 SE3       30.10S
HAZLEHURST     FAIR      75  71  88 CALM      30.07S
ALMA           CLEAR     68  67  96 CALM      30.07S
WAYCROSS         N/A     72  72 100 CALM      30.07S
JESUP          FAIR      70  70 100 CALM      30.07S
BAXLEY         FAIR      70  70 100 CALM      30.07F
BRUNSWICK      CLEAR     72  72 100 CALM      30.05F
SAINT SIMONS   CLEAR     77  68  73 CALM      30.05F

$$

SCZ027-028-034-036>038-045-046-048>050-GAZ119-141-270600-
...LAKE AND SUPPLEMENTAL COASTAL OBSERVATIONS...

STATION/POSITION TIME  TEMP    WIND        PRES    WAVE   SWELL
                       AIR SEA DIR/SP/G            HT/PER HT/PER/DIR
                 (UTC) (F)     (DEG/KT/KT) (MB)    (FT/S) (FT/S/D)
WINYAH BAY       0400   81     120/  4     1018.0
LAKE MURRAY      0400   85     150/  5/  6 1018.3S
ACE BASIN NERRS  0400   74        CALM     1019.0S
FORT PULASKI     0500   79 86  100/  2/  2 1018.3F
SAPELO ISLAND    0500   74        CALM     1018.0S

$$

ANZ835-935-AMZ111-154-330-350-352-354-370-450-454-472-270600-
...C-MAN AND BUOY OBSERVATIONS...

STATION/POSITION TIME  TEMP    WIND        PRES    WAVE   SWELL
                       AIR SEA DIR/SP/G            HT/PER HT/PER/DIR
                 (UTC) (F)     (DEG/KT/KT) (MB)    (FT/S) (FT/S/D)
BUOY 41004       0450   82 84   60/  6/  8 1017.8S   2/11   2/130/11
BUOY 41008       0450   83 85   70/  6/  8 1017.4F   4/ 7   3/120/ 7
FOLLY BEACH CMAN 0500   82     130/  5/  6 1018.7F
CAPERS NEARSHORE 0508   82 84  110/  6/ 10 1018.1F
FRIPP NEARSHORE  0508   82 86   90/  6/ 10 1017.4F


STATION/POSITION TIME  TEMP    WIND        PRES    WAVE   SWELL
                       AIR SEA DIR/SP/G            HT/PER HT/PER/DIR
                 (UTC) (F)     (DEG/KT/KT) (MB)    (FT/S) (FT/S/D)
5E ST. MARYS GA  0501      85                N/A     4/ 8
FRYING PAN BUOY  0500   82 85  100/  8/ 10 1018.1S
BUOY 41025       0450   81 85  160/  6/  8 1018.6F   2/ 7   2/ 80/ 7
CAPE LOOKOUT NC  0500   81     140/  6/  6 1018.5R
BUOY 41002       0450   82 84   90/ 10/ 12 1016.8S   5/10   5/130/10
BUOY 41010       NOT AVBL
ST AUGUSTINE FL  0500   81 83   70/ 11/ 11 1017.7F


$$



USA.gov is the U.S. government's official web portal to all federal, state and local government web resources and services.